This is the latest recevied weather packets stored in our database for station/object KC4JES. If no packets are shown the sender has not sent any weather packets the latest 10 day(s).
| Time | Temp. | Humidity | Pressure | Rain* | Wind** | Luminosity | Snow |
|---|---|---|---|---|---|---|---|
| 1777379336 | 21.11° C | 98% | 1021 hPa | 0 mm | - | 47 W/m² | - |
| 1777378731 | 20.56° C | 98% | 1020.9 hPa | 0 mm | - | 34 W/m² | - |
| 1777378123 | 20.56° C | 98% | 1020.7 hPa | 0 mm | - | 35 W/m² | - |
| 1777377512 | 20° C | 98% | 1020.3 hPa | 0 mm | - | 30 W/m² | - |
| 1777377207 | 20° C | 98% | 1020.2 hPa | 0 mm | - | 28 W/m² | - |
| 1777375994 | 20° C | 98% | 1020.4 hPa | 0 mm | - | 27 W/m² | - |
| 1777375693 | 20° C | 98% | 1020.2 hPa | 0 mm | - | 24 W/m² | - |
| 1777374481 | 20° C | 98% | 1020 hPa | 0 mm | - | 9 W/m² | - |
| 1777373572 | 20° C | 98% | 1019.7 hPa | 0 mm | - | 4 W/m² | - |
| 1777372658 | 20° C | 98% | 1019.7 hPa | 0 mm | - | 0 W/m² | - |
| 1777372358 | 20° C | 98% | 1019.6 hPa | 0 mm | - | 0 W/m² | - |
| 1777372056 | 20° C | 98% | 1019.6 hPa | 0 mm | - | 0 W/m² | - |
| 1777371752 | 20° C | 98% | 1019.7 hPa | 0 mm | - | 0 W/m² | - |
| 1777371450 | 20° C | 97% | 1019.4 hPa | 0 mm | - | 0 W/m² | - |
| 1777371145 | 20° C | 97% | 1019.6 hPa | 0.51 mm | - | 0 W/m² | - |
| 1777370842 | 20° C | 98% | 1019.5 hPa | 0.51 mm | - | 0 W/m² | - |
| 1777370538 | 20° C | 98% | 1019.6 hPa | 0.51 mm | - | 0 W/m² | - |
| 1777370234 | 20° C | 97% | 1019.7 hPa | 0.51 mm | - | 0 W/m² | - |
| 1777369930 | 20° C | 97% | 1019.7 hPa | 0 mm | - | 0 W/m² | - |
| 1777369022 | 20° C | 97% | 1019.8 hPa | 0 mm | - | 0 W/m² | - |
| 1777368721 | 20° C | 97% | 1019.5 hPa | 0 mm | - | 0 W/m² | - |
| 1777368421 | 20° C | 97% | 1019.6 hPa | 0 mm | - | 0 W/m² | - |
| 1777367816 | 20° C | 97% | 1019.4 hPa | 0 mm | - | 0 W/m² | - |
| 1777367207 | 19.44° C | 96% | 1019.6 hPa | 0 mm | - | 0 W/m² | - |
| 1777365695 | 20° C | 95% | 1019.4 hPa | 0.51 mm | - | 0 W/m² | - |
* Rain latest hour (hover to see other rain measurements)
** Current wind speed in m/s (hover to see current wind gust speed)